Powrót do katalogu

THOR ABLESTAR DEB

AktywnyLEO
NORAD 409·DEBRIS·🇺🇸 United States

Wystrzelony Jun 29, 1961 z Cape Canaveral Space Force Station

Loading…

Następne Przeloty (najbliższe 24 godziny)

TLE

ŚwieżeSource: Space-Track

Epoka: Sep 10, 2026, 18:39 UTC

1 00409U 61015EJ  26253.77753553  .00000602  00000-0  26579-3 0  9996
2 00409  66.7117 126.1909 0057020 117.4419 243.2494 14.29111550353538

Śledź THOR ABLESTAR DEB w czasie rzeczywistym z AllMySat

Download on the App Store